Location: Unspecified
(40.9833°N, 0.0000°E)
Time: 21:02:52
(UTC+00:00)

ISS - Visible Passes

Search period start: 20 May 2019 00:00
Search period end: 30 May 2019 00:00
Orbit: 408 x 410 km, 51.6° (Epoch: 21 May)

Date Brightness Start Highest point End Pass type
(mag) Time Alt. Az. Time Alt. Az. Time Alt. Az.
20 May -0.9 00:52:05 10° NNW 00:54:28 18° NNE 00:56:51 10° ENE visible
20 May -3.7 02:28:10 10° NW 02:31:30 75° NE 02:34:48 10° ESE visible
20 May -1.9 04:06:15 10° WSW 04:07:38 12° SW 04:09:02 10° SSW visible
20 May -2.3 20:45:19 10° W 20:48:27 40° NNW 20:51:36 10° NE visible
20 May -0.5 22:23:45 10° NW 22:25:42 15° N 22:27:40 10° NNE visible
21 May -0.6 00:01:18 10° NNW 00:03:19 15° N 00:04:32 13° NE visible
21 May -1.5 03:19:21 11° S 03:19:21 11° S 03:19:34 10° S visible
21 May -3.4 19:54:12 10° WSW 19:57:29 68° NW 20:00:47 10° NE visible
21 May -0.8 21:32:13 10° WNW 21:34:32 17° NNW 21:36:51 10° NNE visible
21 May -0.5 23:10:23 10° NNW 23:12:07 13° N 23:13:51 10° NE visible
22 May -0.7 00:46:35 10° NW 00:46:55 12° NW 00:46:55 12° NW visible
22 May -1.2 20:40:42 10° WNW 20:43:23 22° NNW 20:46:05 10° NNE visible
22 May -0.6 22:19:14 10° NNW 22:20:53 13° N 22:22:32 10° NNE visible
22 May -0.9 23:55:50 10° NNW 23:57:16 17° N 23:57:16 17° N visible
23 May -1.8 19:49:17 10° W 19:52:18 32° NNW 19:55:19 10° NE visible
23 May -0.7 21:27:50 10° NW 21:29:39 14° N 21:31:27 10° NNE visible
23 May -1.0 23:05:02 10° NNW 23:07:14 16° NNE 23:07:44 16° NNE visible
24 May -0.8 20:36:17 10° NW 20:38:25 16° NNW 20:40:32 10° NNE visible
24 May -0.7 22:14:10 10° NNW 22:16:01 14° N 22:17:52 10° NE visible
24 May -0.8 23:50:15 10° NW 23:51:00 15° NNW 23:51:00 15° NNW visible
25 May -0.7 21:23:05 10° NNW 21:24:45 13° N 21:26:25 10° NNE visible
25 May -1.3 22:59:27 10° NW 23:01:36 22° N 23:01:36 22° N visible
26 May -0.8 20:31:46 10° NW 20:33:28 13° N 20:35:10 10° NNE visible
26 May -1.3 22:08:39 10° NNW 22:11:02 18° NNE 22:12:13 15° NE visible
26 May -0.6 23:44:43 10° NW 23:44:56 11° NW 23:44:56 11° NW visible
27 May -1.0 21:17:46 10° NNW 21:19:48 15° N 21:21:48 10° NE visible
27 May -1.6 22:53:49 10° NW 22:55:34 26° NNW 22:55:34 26° NNW visible
28 May -0.9 20:26:47 10° NNW 20:28:30 13° N 20:30:14 10° NE visible
28 May -2.1 22:02:58 10° NW 22:05:54 28° NNE 22:06:14 27° NE visible
29 May -1.5 21:12:07 10° NNW 21:14:42 21° NNE 21:16:55 12° ENE visible
29 May -1.5 22:48:17 10° NW 22:49:38 22° WNW 22:49:38 22° WNW visible
